• In Belarus
  • List of Countries
  • For 7 days
  • Water Temperature
  • Satellite Maps
  • Weather Map
  • Weather Widgets
  • user-avatar
    Login

    Hourly Weather Bragansa

    Today, 20 March, Wednesday

    Time Temperature Precipitation Wind Pressure Humidity
    00:00 +5°C° 0 mm 3 mps 721 mmHg 71%
    01:00 +5°C° 0 mm 3 mps 721 mmHg 76%
    02:00 +5°C° 0 mm 2 mps 721 mmHg 80%
    03:00 +4°C° 0 mm 2 mps 721 mmHg 84%
    04:00 +4°C° 0 mm 2 mps 721 mmHg 86%
    05:00 +3°C° 0 mm 2 mps 721 mmHg 88%
    06:00 +4°C° 0 mm 1 mps 721 mmHg 91%
    07:00 +5°C° 0 mm 2 mps 721 mmHg 84%
    08:00 +5°C° 0 mm 3 mps 721 mmHg 76%
    09:00 +8°C° 0 mm 3 mps 721 mmHg 68%
    10:00 +10°C° 0 mm 3 mps 721 mmHg 61%
    11:00 +11°C° 0 mm 4 mps 721 mmHg 54%
    12:00 +13°C° 0 mm 4 mps 721 mmHg 47%
    13:00 +14°C° 0 mm 4 mps 721 mmHg 44%
    14:00 +15°C° 0 mm 5 mps 720 mmHg 40%
    15:00 +16°C° 0 mm 5 mps 720 mmHg 37%
    16:00 +15°C° 0 mm 4 mps 720 mmHg 40%
    17:00 +14°C° 0 mm 4 mps 719 mmHg 43%
    18:00 +13°C° 0 mm 3 mps 719 mmHg 47%
    19:00 +11°C° 0 mm 3 mps 720 mmHg 50%
    20:00 +9°C° 0 mm 3 mps 720 mmHg 54%
    21:00 +7°C° 0 mm 3 mps 720 mmHg 58%
    22:00 +5°C° 0 mm 3 mps 721 mmHg 60%
    23:00 +5°C° 0 mm 3 mps 721 mmHg 61%

    Tomorrow, 21 March, Thursday

    Time Temperature Precipitation Wind Pressure Humidity
    00:00 +4°C° 0 mm 3 mps 721 mmHg 63%
    01:00 +3°C° 0 mm 3 mps 721 mmHg 64%
    02:00 +3°C° 0 mm 3 mps 720 mmHg 64%
    03:00 +2°C° 0 mm 3 mps 720 mmHg 65%
    04:00 +2°C° 0 mm 3 mps 720 mmHg 67%
    05:00 +2°C° 0 mm 2 mps 720 mmHg 69%
    06:00 +2°C° 0 mm 2 mps 721 mmHg 70%
    07:00 +4°C° 0 mm 2 mps 721 mmHg 65%
    08:00 +4°C° 0 mm 3 mps 721 mmHg 60%
    09:00 +7°C° 0 mm 3 mps 721 mmHg 55%
    10:00 +9°C° 0 mm 3 mps 721 mmHg 50%
    11:00 +11°C° 0 mm 3 mps 721 mmHg 44%
    12:00 +14°C° 0 mm 3 mps 721 mmHg 38%
    13:00 +15°C° 0 mm 2 mps 720 mmHg 36%
    14:00 +16°C° 0 mm 2 mps 720 mmHg 33%
    15:00 +17°C° 0 mm 2 mps 719 mmHg 30%
    16:00 +16°C° 0 mm 2 mps 719 mmHg 35%
    17:00 +15°C° 0 mm 1 mps 719 mmHg 39%
    18:00 +14°C° 0 mm 1 mps 718 mmHg 43%
    19:00 +12°C° 0 mm 1 mps 719 mmHg 45%
    20:00 +11°C° 0 mm 1 mps 719 mmHg 46%
    21:00 +9°C° 0 mm 1 mps 719 mmHg 47%
    22:00 +8°C° 0 mm 1 mps 719 mmHg 49%
    23:00 +8°C° 0 mm 1 mps 719 mmHg 50%

    Day after tomorrow, 22 March, Friday

    Time Temperature Precipitation Wind Pressure Humidity
    00:00 +7°C° 0 mm 1 mps 720 mmHg 51%
    01:00 +7°C° 0 mm 1 mps 719 mmHg 53%
    02:00 +6°C° 0 mm 1 mps 719 mmHg 54%
    03:00 +6°C° 0 mm 1 mps 719 mmHg 55%
    04:00 +5°C° 0 mm 1 mps 719 mmHg 58%
    05:00 +5°C° 0 mm 1 mps 719 mmHg 60%
    06:00 +5°C° 0 mm 1 mps 719 mmHg 63%
    07:00 +7°C° 0 mm 1 mps 720 mmHg 59%
    08:00 +9°C° 0 mm 1 mps 720 mmHg 56%
    09:00 +10°C° 0 mm 1 mps 720 mmHg 52%
    10:00 +13°C° 0 mm 1 mps 720 mmHg 47%
    11:00 +15°C° 0 mm 1 mps 720 mmHg 42%
    12:00 +18°C° 0 mm 1 mps 720 mmHg 37%
    13:00 +19°C° 0 mm 1 mps 720 mmHg 35%
    14:00 +19°C° 0 mm 1 mps 720 mmHg 33%
    15:00 +20°C° 0 mm 1 mps 719 mmHg 32%
    16:00 +19°C° 0 mm 1 mps 719 mmHg 36%
    17:00 +18°C° 0 mm 1 mps 719 mmHg 41%
    18:00 +16°C° 0 mm 1 mps 719 mmHg 45%
    19:00 +14°C° 0 mm 1 mps 719 mmHg 46%
    20:00 +12°C° 0 mm 1 mps 719 mmHg 47%
    21:00 +10°C° 0 mm 2 mps 720 mmHg 48%
    22:00 +9°C° 0 mm 2 mps 720 mmHg 48%
    23:00 +8°C° 0 mm 2 mps 720 mmHg 49%

    23 March, Saturday

    Time Temperature Precipitation Wind Pressure Humidity
    00:00 +8°C° 0 mm 2 mps 720 mmHg 49%
    01:00 +7°C° 0 mm 2 mps 719 mmHg 50%
    02:00 +7°C° 0 mm 2 mps 719 mmHg 51%
    03:00 +6°C° 0 mm 2 mps 719 mmHg 52%
    04:00 +6°C° 0 mm 2 mps 719 mmHg 53%
    05:00 +6°C° 0 mm 2 mps 719 mmHg 55%
    06:00 +6°C° 0 mm 2 mps 719 mmHg 56%
    07:00 +7°C° 0 mm 2 mps 719 mmHg 54%
    08:00 +9°C° 0 mm 3 mps 719 mmHg 53%
    09:00 +11°C° 0 mm 3 mps 719 mmHg 51%
    10:00 +13°C° 0 mm 4 mps 719 mmHg 47%
    11:00 +17°C° 0 mm 4 mps 719 mmHg 42%
    12:00 +19°C° 0 mm 5 mps 718 mmHg 38%
    13:00 +19°C° 0 mm 5 mps 718 mmHg 36%
    14:00 +20°C° 0 mm 5 mps 717 mmHg 35%
    15:00 +20°C° 0 mm 5 mps 717 mmHg 33%
    16:00 +19°C° 0 mm 4 mps 716 mmHg 37%
    17:00 +18°C° 0 mm 3 mps 716 mmHg 41%
    18:00 +17°C° 0 mm 3 mps 716 mmHg 45%
    19:00 +16°C° 0 mm 3 mps 716 mmHg 46%
    20:00 +13°C° 0 mm 3 mps 716 mmHg 48%
    21:00 +12°C° 0 mm 3 mps 717 mmHg 49%
    22:00 +11°C° 0 mm 3 mps 716 mmHg 50%
    23:00 +10°C° 0 mm 3 mps 716 mmHg 52%

    24 March, Sunday

    Time Temperature Precipitation Wind Pressure Humidity
    00:00 +10°C° 0 mm 2 mps 716 mmHg 53%
    01:00 +9°C° 0 mm 3 mps 716 mmHg 56%
    02:00 +9°C° 0 mm 3 mps 716 mmHg 58%
    03:00 +8°C° 0 mm 3 mps 716 mmHg 60%
    04:00 +8°C° 0 mm 3 mps 716 mmHg 61%
    05:00 +8°C° 0 mm 3 mps 716 mmHg 63%
    06:00 +7°C° 0 mm 3 mps 716 mmHg 64%
    07:00 +8°C° 0 mm 4 mps 716 mmHg 59%
    08:00 +11°C° 0 mm 4 mps 716 mmHg 54%
    09:00 +13°C° 0 mm 5 mps 716 mmHg 49%
    10:00 +14°C° 0 mm 5 mps 716 mmHg 45%
    11:00 +16°C° 0 mm 6 mps 716 mmHg 40%
    12:00 +19°C° 0 mm 6 mps 716 mmHg 36%
    13:00 +20°C° 0 mm 6 mps 716 mmHg 34%
    14:00 +20°C° 0 mm 6 mps 715 mmHg 32%
    15:00 +21°C° 0 mm 6 mps 715 mmHg 30%
    16:00 +20°C° 0 mm 5 mps 714 mmHg 34%
    17:00 +19°C° 0 mm 4 mps 714 mmHg 37%
    18:00 +18°C° 0 mm 3 mps 714 mmHg 40%
    19:00 +15°C° 0 mm 4 mps 714 mmHg 42%
    20:00 +14°C° 0 mm 4 mps 715 mmHg 43%
    21:00 +13°C° 0 mm 5 mps 715 mmHg 45%
    22:00 +12°C° 0 mm 5 mps 715 mmHg 47%
    23:00 +12°C° 0 mm 5 mps 715 mmHg 49%

    25 March, Monday

    Time Temperature Precipitation Wind Pressure Humidity
    00:00 +12°C° 0 mm 5 mps 715 mmHg 52%
    01:00 +10°C° 0 mm 5 mps 715 mmHg 55%
    02:00 +9°C° 0 mm 5 mps 715 mmHg 58%
    03:00 +8°C° 0 mm 4 mps 715 mmHg 61%
    04:00 +8°C° 0 mm 4 mps 715 mmHg 63%
    05:00 +8°C° 0 mm 4 mps 715 mmHg 64%
    06:00 +7°C° 0 mm 4 mps 715 mmHg 66%
    07:00 +9°C° 0 mm 5 mps 715 mmHg 62%
    08:00 +10°C° 0 mm 5 mps 715 mmHg 57%
    09:00 +13°C° 0 mm 6 mps 715 mmHg 53%
    10:00 +15°C° 0 mm 6 mps 715 mmHg 47%
    11:00 +17°C° 0 mm 6 mps 715 mmHg 42%
    12:00 +19°C° 0 mm 6 mps 715 mmHg 37%
    13:00 +20°C° 0 mm 6 mps 715 mmHg 35%
    14:00 +21°C° 0 mm 6 mps 714 mmHg 34%
    15:00 +21°C° 0 mm 6 mps 714 mmHg 32%
    16:00 +20°C° 0 mm 5 mps 714 mmHg 36%
    17:00 +19°C° 0 mm 4 mps 713 mmHg 39%
    18:00 +18°C° 0 mm 4 mps 713 mmHg 43%
    19:00 +17°C° 0 mm 4 mps 714 mmHg 46%
    20:00 +15°C° 0 mm 5 mps 714 mmHg 49%
    21:00 +13°C° 0 mm 5 mps 714 mmHg 53%
    22:00 +13°C° 0 mm 6 mps 715 mmHg 56%
    23:00 +11°C° 0 mm 6 mps 715 mmHg 60%
    Show more